This demonstration page uses our WeatherBlox Daily Observations layout. Learn more.

Left ArrowRight Arrow

34.74481, -87.66753

Hourly Observations for June 17, 2018

Temp ( °F °C ) Dew Point ( °F °C ) Humidity (%) Winds ( mph kmh ) Pressure ( in mb ) Visibility ( mi km ) Precip ( " mm )
12:53 am 00:53 Clear 73 22.8 66 18.9 79 79 N 3 6 30.04 1017 10 16 0.00 0.00
1:53 am 01:53 Clear 72 22.2 68 20 87 87 ESE 3 6 30.04 1017 10 16 0.00 0.00
2:53 am 02:53 Clear 72 22.2 67 19.4 84 84 SSE 3 6 30.04 1017 10 16 0.00 0.00
3:53 am 03:53 Clear 71 21.7 66 18.9 84 84 SSE 5 7 30.04 1017 10 16 0.00 0.00
4:53 am 04:53 Clear 70 21.1 67 19.4 90 90 E 3 6 30.06 1018 10 16 0.00 0.00
5:53 am 05:53 Sunny 70 21.1 68 20 93 93 Calm 30.09 1019 10 16 0.00 0.00
6:53 am 06:53 Sunny 73 22.8 69 20.6 87 87 E 3 6 30.09 1019 10 16 0.00 0.00
7:53 am 07:53 Sunny 77 25 69 20.6 77 77 Calm 30.12 1020 10 16 0.00 0.00
8:53 am 08:53 Sunny 79 26.1 71 21.7 77 77 Calm 30.13 1020 10 16 0.00 0.00
9:53 am 09:53 Sunny 83 28.3 73 22.8 72 72 VRB 3 6 30.12 1020 10 16 0.00 0.00
10:53 am 10:53 Sunny 86 30 73 22.8 65 65 Calm 30.12 1020 10 16 0.00 0.00
11:53 am 11:53 Mostly Sunny 88 31.1 72 22.2 59 59 Calm 30.11 1020 10 16 0.00 0.00
12:53 pm 12:53 Sunny 91 32.8 72 22.2 54 54 W 5 7 30.09 1019 10 16 0.00 0.00
1:53 pm 13:53 Partly Cloudy 92 33.3 73 22.8 54 54 E 5 7 30.08 1019 10 16 0.00 0.00
2:53 pm 14:53 Mostly Cloudy 91 32.8 71 21.7 52 52 Calm 30.06 1018 10 16 0.00 0.00
3:14 pm 15:14 Partly Cloudy with Nearby Thunderstorms 93 33.9 72 22.2 50 50 VRB 5 7 30.03 1017 10 16 0.00 0.00
3:43 pm 15:43 Mostly Cloudy with Thunderstorms 84 28.9 67 19.4 57 57 SW 17 28 30.06 1018 10 16 0.00 0.00
3:53 pm 15:53 Cloudy with Thunderstorms 81 27.2 66 18.9 61 61 SW 13 20 30.07 1018 10 16 0.00 0.00
4:02 pm 16:02 Mostly Cloudy with Nearby Thunderstorms 81 27.2 66 18.9 61 61 WSW 8 13 30.06 1018 10 16 0.00 0.00
4:38 pm 16:38 Mostly Cloudy with Thunderstorms 77 25 67 19.4 71 71 S 15 24 30.09 1019 8 13 0.01 0.25
4:53 pm 16:53 Cloudy with Rain 74 23.3 69 20.6 85 85 NNW 7 11 30.08 1019 4 6 0.13 3.30
5:53 pm 17:53 Sunny 77 25 70 21.1 79 79 Calm 30.06 1018 10 16 0.02 0.51
6:53 pm 18:53 Sunny 77 25 72 22.2 85 85 WSW 3 6 30.08 1019 10 16 0.00 0.00
7:53 pm 19:53 Sunny 77 25 70 21.1 79 79 SSW 6 9 30.10 1019 10 16 0.00 0.00
8:53 pm 20:53 Clear 75 23.9 69 20.6 82 82 S 5 7 30.13 1020 10 16 0.00 0.00
9:53 pm 21:53 Clear 74 23.3 68 20 82 82 Calm 30.12 1020 10 16 0.00 0.00
10:53 pm 22:53 Clear 71 21.7 69 20.6 94 94 S 3 6 30.13 1020 10 16 0.00 0.00
11:53 pm 23:53 Clear 72 22.2 68 20 87 87 SE 6 9 30.12 1020 10 16 0.00 0.00

Powered by AerisWeather